TimeCST,TemperatureF,Dew PointF,Humidity,Sea Level PressureIn,VisibilityMPH,Wind Direction,Wind SpeedMPH,Gust SpeedMPH,PrecipitationIn,Events,Conditions,WindDirDegrees,DateUTC
12:15 AM,14.2,12.0,91,30.21,4.0,NNW,3.5,-,N/A,,Clear,340,2013-03-01 06:15:00
12:35 AM,13.8,11.3,90,30.21,3.0,Calm,Calm,-,N/A,,Clear,0,2013-03-01 06:35:00
12:55 AM,13.1,10.6,90,30.21,0.5,NW,4.6,-,N/A,Fog,Light Freezing Fog,310,2013-03-01 06:55:00
1:15 AM,12.7,10.2,90,30.21,0.2,Calm,Calm,-,N/A,Fog,Light Freezing Fog,0,2013-03-01 07:15:00
1:35 AM,11.5,8.8,89,30.22,0.2,North,3.5,-,N/A,Fog,Light Freezing Fog,350,2013-03-01 07:35:00
1:55 AM,13.3,11.1,91,30.22,5.0,NNW,3.5,-,N/A,,Clear,330,2013-03-01 07:55:00
2:15 AM,12.6,9.9,89,30.22,4.0,WNW,3.5,-,N/A,,Clear,290,2013-03-01 08:15:00
2:35 AM,12.7,10.2,90,30.22,4.0,West,3.5,-,N/A,,Scattered Clouds,270,2013-03-01 08:35:00
2:55 AM,11.8,9.1,89,30.22,1.8,Calm,Calm,-,N/A,,Scattered Clouds,0,2013-03-01 08:55:00
3:35 AM,10.2,7.7,90,30.21,0.2,Calm,Calm,-,N/A,Fog,Light Freezing Fog,0,2013-03-01 09:35:00
3:55 AM,-9999,-9999,N/A,30.21,0.2,Calm,Calm,-,N/A,Fog,Fog,0,2013-03-01 09:55:00
4:15 AM,-9999,-9999,N/A,30.21,0.2,Calm,Calm,-,N/A,Fog,Fog,0,2013-03-01 10:15:00
4:35 AM,-9999,-9999,N/A,30.22,0.5,WNW,3.5,-,N/A,Fog,Fog,290,2013-03-01 10:35:00
4:55 AM,-9999,-9999,N/A,30.21,0.2,Calm,Calm,-,N/A,Fog,Fog,0,2013-03-01 10:55:00
5:15 AM,-9999,-9999,N/A,30.22,0.5,West,4.6,-,N/A,Fog,Fog,270,2013-03-01 11:15:00
5:35 AM,-9999,-9999,N/A,30.24,0.5,WNW,4.6,-,N/A,Fog,Fog,300,2013-03-01 11:35:00
6:15 AM,-9999,-9999,N/A,30.24,0.2,West,3.5,-,N/A,Fog,Fog,280,2013-03-01 12:15:00
6:35 AM,-9999,-9999,N/A,30.24,0.5,West,3.5,-,N/A,Fog,Fog,280,2013-03-01 12:35:00
7:15 AM,-9999,-9999,N/A,30.24,5.0,West,3.5,-,N/A,,Haze,270,2013-03-01 13:15:00
7:35 AM,-9999,-9999,N/A,30.24,7.0,West,3.5,-,N/A,,Overcast,280,2013-03-01 13:35:00
8:15 AM,-9999,-9999,N/A,30.25,5.0,Calm,Calm,-,N/A,,Haze,0,2013-03-01 14:15:00
8:35 AM,15.3,12.7,90,30.26,5.0,NW,3.5,-,N/A,,Scattered Clouds,320,2013-03-01 14:35:00
8:55 AM,15.3,13.1,91,30.27,5.0,Calm,Calm,-,N/A,,Clear,0,2013-03-01 14:55:00
9:15 AM,16.3,14.2,91,30.27,5.0,Calm,Calm,-,N/A,,Clear,0,2013-03-01 15:15:00
9:35 AM,17.1,15.1,92,30.27,5.0,Calm,Calm,-,N/A,,Scattered Clouds,0,2013-03-01 15:35:00
9:55 AM,20.3,18.7,93,30.28,5.0,Calm,Calm,-,N/A,,Mostly Cloudy,0,2013-03-01 15:55:00
10:15 AM,22.1,20.5,93,30.28,5.0,Calm,Calm,-,N/A,,Overcast,0,2013-03-01 16:15:00
10:35 AM,24.4,22.6,93,30.28,5.0,Calm,Calm,-,N/A,,Mostly Cloudy,0,2013-03-01 16:35:00
10:55 AM,24.8,22.1,89,30.28,7.0,ENE,5.8,-,N/A,,Scattered Clouds,60,2013-03-01 16:55:00
11:15 AM,25.9,22.5,87,30.28,7.0,East,6.9,-,N/A,,Clear,80,2013-03-01 17:15:00
11:35 AM,26.1,22.6,87,30.28,7.0,ENE,6.9,-,N/A,,Clear,70,2013-03-01 17:35:00
12:15 PM,27.3,23.5,86,30.29,7.0,ENE,3.5,-,N/A,,Mostly Cloudy,70,2013-03-01 18:15:00
12:35 PM,27.0,23.4,86,30.29,5.0,East,3.5,-,N/A,,Scattered Clouds,80,2013-03-01 18:35:00
1:15 PM,28.4,23.9,83,30.28,7.0,Calm,Calm,-,N/A,,Clear,0,2013-03-01 19:15:00
1:35 PM,28.9,24.6,84,30.28,10.0,Calm,Calm,-,N/A,,Scattered Clouds,0,2013-03-01 19:35:00
1:55 PM,30.2,25.7,83,30.27,10.0,Calm,Calm,-,N/A,,Scattered Clouds,0,2013-03-01 19:55:00
2:15 PM,31.3,26.1,81,30.27,7.0,Calm,Calm,-,N/A,,Mostly Cloudy,0,2013-03-01 20:15:00
2:35 PM,32.2,26.8,80,30.27,10.0,Calm,Calm,-,N/A,,Overcast,0,2013-03-01 20:35:00
3:15 PM,33.3,27.5,79,30.26,10.0,Calm,Calm,-,N/A,,Overcast,0,2013-03-01 21:15:00
3:35 PM,33.8,28.0,79,30.26,10.0,Calm,Calm,-,N/A,,Scattered Clouds,0,2013-03-01 21:35:00
3:55 PM,34.5,28.2,78,30.26,10.0,Calm,Calm,-,N/A,,Clear,0,2013-03-01 21:55:00
4:15 PM,35.4,27.9,74,30.26,10.0,NNE,9.2,-,N/A,,Clear,30,2013-03-01 22:15:00
4:35 PM,34.9,27.9,76,30.27,10.0,NE,6.9,-,N/A,,Clear,40,2013-03-01 22:35:00
4:55 PM,34.3,27.7,77,30.27,10.0,NE,6.9,-,N/A,,Clear,40,2013-03-01 22:55:00
5:15 PM,34.5,27.3,75,30.27,10.0,NNE,4.6,-,N/A,,Clear,30,2013-03-01 23:15:00
5:35 PM,33.8,27.5,78,30.28,10.0,North,5.8,-,N/A,,Clear,10,2013-03-01 23:35:00
5:55 PM,32.9,27.5,81,30.28,10.0,NNE,6.9,-,N/A,,Clear,20,2013-03-01 23:55:00
6:15 PM,32.7,26.6,78,30.28,10.0,NNE,4.6,-,N/A,,Clear,30,2013-03-02 00:15:00
6:35 PM,32.0,26.6,80,30.29,10.0,Calm,Calm,-,N/A,,Clear,0,2013-03-02 00:35:00
6:55 PM,30.6,26.2,84,30.29,10.0,Calm,Calm,-,N/A,,Clear,0,2013-03-02 00:55:00
7:15 PM,30.0,25.9,85,30.29,10.0,Calm,Calm,-,N/A,,Clear,0,2013-03-02 01:15:00
7:35 PM,28.9,25.2,86,30.29,10.0,Calm,Calm,-,N/A,,Clear,0,2013-03-02 01:35:00
7:55 PM,26.2,23.2,88,30.30,10.0,Calm,Calm,-,N/A,,Clear,0,2013-03-02 01:55:00
8:15 PM,25.5,23.0,90,30.30,10.0,Calm,Calm,-,N/A,,Clear,0,2013-03-02 02:15:00
8:35 PM,26.2,24.3,92,30.30,10.0,Calm,Calm,-,N/A,,Clear,0,2013-03-02 02:35:00
8:55 PM,22.5,20.8,93,30.31,7.0,Calm,Calm,-,N/A,,Clear,0,2013-03-02 02:55:00
9:15 PM,22.8,21.6,95,30.30,2.5,Calm,Calm,-,N/A,,Clear,0,2013-03-02 03:15:00
9:35 PM,22.6,21.2,94,30.30,7.0,Calm,Calm,-,N/A,,Clear,0,2013-03-02 03:35:00
9:55 PM,24.4,23.2,95,30.29,7.0,ENE,4.6,-,N/A,,Clear,70,2013-03-02 03:55:00
10:15 PM,21.6,20.3,95,30.29,2.0,East,5.8,-,N/A,,Clear,90,2013-03-02 04:15:00
10:35 PM,19.8,18.0,93,30.31,0.5,Calm,Calm,-,N/A,Fog,Light Freezing Fog,0,2013-03-02 04:35:00
10:55 PM,17.4,15.4,92,30.31,0.8,WSW,3.5,-,N/A,,Mist,250,2013-03-02 04:55:00
11:15 PM,17.6,15.4,91,30.31,5.0,Calm,Calm,-,N/A,,Clear,0,2013-03-02 05:15:00
11:35 PM,16.7,14.9,93,30.31,5.0,Calm,Calm,-,N/A,,Clear,0,2013-03-02 05:35:00
11:55 PM,14.4,12.2,91,30.31,0.2,Calm,Calm,-,N/A,Fog,Light Freezing Fog,0,2013-03-02 05:55:00